Regional Weather Roundup
Issued by NWS Raleigh/Durham, NC

Home | Current Version | Previous Version | Text Only | Print | Product List | Glossary On
Versions: 1 2 3 4 5 6 7 8 9 10 11 12 13 14 15 16 17 18 19 20 21 22 23 24 25 26 27 28 29 30 31 32 33 34 35 36 37 38 39 40 41 42 43 44 45 46 47 48 49
862
ASUS42 KRAH 071610
RWRRAH
NORTH CAROLINA WEATHER ROUNDUP
NATIONAL WEATHER SERVICE RALEIGH NC
1100 AM EST SUN FEB 07 2016

NOTE: "FAIR" INDICATES FEW OR NO CLOUDS BELOW 12,000 FEET WITH NO
SIGNIFICANT WEATHER AND/OR OBSTRUCTIONS TO VISIBILITY.

NCZ001-053-055-056-065-067-071700-
WESTERN NORTH CAROLINA

CITY           SKY/WX    TMP DP  RH WIND       PRES   REMARKS
ASHEVILLE      SUNNY     42  20  41 N23G30    30.09F
JEFFERSON      SUNNY     38  17  43 N7        30.05S WCI  32
MORGANTON      SUNNY     46  25  44 N5        30.14R
HICKORY        SUNNY     46  24  42 N5        30.08S
RUTHERFORDTON  SUNNY     48  22  36 N9G16     30.10S
MOUNT AIRY     CLOUDY    44  24  44 NW7       30.10S
BOONE          SUNNY     37  17  44 CALM      30.05F
$$

NCZ021-022-025-041-071-084-088-071700-
CENTRAL NORTH CAROLINA

CITY           SKY/WX    TMP DP  RH WIND       PRES   REMARKS
CHARLOTTE      PTSUNNY   46  20  35 N13       30.08S
GREENSBORO     PTSUNNY   41  19  41 N9        30.06F
WINSTON-SALEM  CLOUDY    40  21  46 N10       30.09S WCI  33
RALEIGH-DURHAM CLOUDY    39  23  52 VRB6      30.04F WCI  35
FORT BRAGG     CLOUDY    35  30  80 NE12G21   30.01F WCI  27
FAYETTEVILLE   LGT RAIN  35  31  85 N16G26    30.00F WCI  25
BURLINGTON     PTSUNNY   39  20  46 N10       30.05F WCI  32
LAURINBURG     CLOUDY    40  26  57 NE20G25   30.01F WCI  30
$$

NCZ011-015-027-028-043-044-047-080-103-071700-
NORTHEASTERN NORTH CAROLINA

CITY           SKY/WX    TMP DP  RH WIND       PRES   REMARKS
ROCKY MT-WILSO LGT RAIN  34  31  88 N12       30.04F FOG     WCI  25
GREENVILLE     LGT RAIN  36  32  87 N10       30.03F WCI  28
WASHINGTON     LGT RAIN  36  32  86 N13       29.99F WCI  27
ELIZABETH CITY CLOUDY    43  32  65 N16       30.05R
MANTEO         LGT RAIN  45  42  89 NE20G31   29.98F
CAPE HATTERAS  RAIN      47  45  93 NE20G32   29.86F
$$

NCZ078-087-090-091-093-098-101-071700-
SOUTHEASTERN NORTH CAROLINA

CITY           SKY/WX    TMP DP  RH WIND       PRES   REMARKS
LUMBERTON      RAIN      37  33  85 N21G29    29.98S FOG     WCI  26
GOLDSBORO      LGT RAIN  36  36 100 N13       29.99F WCI  27
KINSTON        RAIN      36  32  87 N15G22    30.00F WCI  26
KENANSVILLE    LGT SNOW  34  32  94 N16G23    30.00S WCI  23
NEW BERN       LGT RAIN  37  33  85 N13G24    29.95F WCI  29
CHERRY POINT   RAIN      39  36  89 N22G31    29.89F WCI  29
BEAUFORT       RAIN      41  39  93 N26G39    29.83F FOG
JACKSONVILLE   RAIN      35  31  85 N25G36    29.89F FOG     WCI  23
WILMINGTON     HVY RAIN  36  32  85 N20G35    29.87F FOG     WCI  25
$$





USA.gov is the U.S. government's official web portal to all federal, state and local government web resources and services.